Time,TemperatureF,DewpointF,PressureIn,WindDirection,WindDirectionDegrees,WindSpeedMPH,WindSpeedGustMPH,Humidity,HourlyPrecipIn,Conditions,Clouds,dailyrainin,SoftwareType,DateUTC
2013-06-05 00:03:00,77.0,72.0,30.00,East,79,2.0,7.0,85,0.00,,,0.00,,2013-06-05 04:03:00,
2013-06-05 00:13:00,77.0,72.0,30.00,East,79,2.0,7.0,85,0.00,,,0.00,,2013-06-05 04:13:00,
2013-06-05 00:23:00,76.0,71.0,30.00,ESE,104,2.0,6.0,85,0.00,,,0.00,,2013-06-05 04:23:00,
2013-06-05 00:33:00,76.0,71.0,29.99,East,88,1.0,6.0,85,0.00,,,0.00,,2013-06-05 04:33:00,
2013-06-05 00:42:00,76.0,71.0,29.99,East,88,1.0,6.0,85,0.00,,,0.00,,2013-06-05 04:42:00,
2013-06-05 00:53:00,76.0,72.0,29.99,East,101,2.0,5.0,86,0.00,,,0.00,,2013-06-05 04:53:00,
2013-06-05 01:02:00,76.0,72.0,29.98,ESE,103,1.0,7.0,87,0.00,,,0.00,,2013-06-05 05:02:00,
2013-06-05 01:12:00,76.0,72.0,29.98,ESE,103,1.0,7.0,87,0.00,,,0.00,,2013-06-05 05:12:00,
2013-06-05 01:23:00,77.0,73.0,29.98,ESE,113,1.0,6.0,88,0.00,,,0.00,,2013-06-05 05:23:00,
2013-06-05 01:32:00,77.0,73.0,29.98,East,90,2.0,9.0,88,0.00,,,0.00,,2013-06-05 05:32:00,
2013-06-05 01:42:00,77.0,73.0,29.98,East,90,2.0,9.0,88,0.00,,,0.00,,2013-06-05 05:42:00,
2013-06-05 01:52:00,77.0,73.0,29.98,ESE,106,3.0,9.0,88,0.00,,,0.00,,2013-06-05 05:52:00,
2013-06-05 02:02:00,77.0,73.0,29.97,ESE,103,3.0,9.0,87,0.00,,,0.00,,2013-06-05 06:02:00,
2013-06-05 02:12:00,77.0,73.0,29.97,ESE,103,3.0,9.0,87,0.00,,,0.00,,2013-06-05 06:12:00,
2013-06-05 02:22:00,77.0,72.0,29.96,ENE,62,1.0,8.0,86,0.00,,,0.00,,2013-06-05 06:22:00,
2013-06-05 02:32:00,77.0,72.0,29.96,East,86,4.0,9.0,86,0.00,,,0.00,,2013-06-05 06:32:00,
2013-06-05 02:42:00,77.0,72.0,29.96,East,86,4.0,9.0,86,0.00,,,0.00,,2013-06-05 06:42:00,
2013-06-05 02:52:00,77.0,73.0,29.95,East,85,2.0,8.0,87,0.00,,,0.00,,2013-06-05 06:52:00,
2013-06-05 03:02:00,77.0,73.0,29.95,ESE,109,2.0,6.0,88,0.00,,,0.00,,2013-06-05 07:02:00,
2013-06-05 03:12:00,77.0,73.0,29.95,ESE,109,2.0,6.0,88,0.00,,,0.00,,2013-06-05 07:12:00,
2013-06-05 03:22:00,77.0,73.0,29.95,ESE,120,3.0,8.0,88,0.00,,,0.00,,2013-06-05 07:22:00,
2013-06-05 03:32:00,77.0,73.0,29.94,East,84,3.0,8.0,88,0.00,,,0.00,,2013-06-05 07:32:00,
2013-06-05 03:42:00,77.0,73.0,29.94,East,84,3.0,8.0,88,0.00,,,0.00,,2013-06-05 07:42:00,
2013-06-05 03:52:00,76.0,72.0,29.94,East,90,2.0,8.0,88,0.00,,,0.00,,2013-06-05 07:52:00,
2013-06-05 04:02:00,76.0,72.0,29.94,ESE,113,1.0,8.0,88,0.00,,,0.00,,2013-06-05 08:02:00,
2013-06-05 04:12:00,76.0,72.0,29.94,ESE,113,1.0,8.0,88,0.00,,,0.00,,2013-06-05 08:12:00,
2013-06-05 04:22:00,76.0,73.0,29.94,ESE,118,2.0,8.0,89,0.00,,,0.00,,2013-06-05 08:22:00,
2013-06-05 04:32:00,76.0,73.0,29.93,ESE,107,2.0,7.0,89,0.00,,,0.00,,2013-06-05 08:32:00,
2013-06-05 04:42:00,76.0,73.0,29.93,ESE,107,2.0,7.0,89,0.00,,,0.00,,2013-06-05 08:42:00,
2013-06-05 04:52:00,76.0,73.0,29.93,SE,126,1.0,7.0,89,0.00,,,0.00,,2013-06-05 08:52:00,
2013-06-05 05:02:00,76.0,73.0,29.93,SE,138,3.0,7.0,89,0.00,,,0.00,,2013-06-05 09:02:00,
2013-06-05 05:12:00,76.0,73.0,29.93,SE,138,3.0,7.0,89,0.00,,,0.00,,2013-06-05 09:12:00,
2013-06-05 05:22:00,76.0,73.0,29.93,ESE,108,2.0,8.0,89,0.00,,,0.00,,2013-06-05 09:22:00,
2013-06-05 05:33:00,76.0,72.0,29.93,East,88,2.0,8.0,87,0.00,,,0.00,,2013-06-05 09:33:00,
2013-06-05 05:43:00,76.0,72.0,29.93,East,88,2.0,8.0,87,0.00,,,0.00,,2013-06-05 09:43:00,
2013-06-05 05:53:00,76.0,72.0,29.93,East,88,4.0,9.0,87,0.00,,,0.00,,2013-06-05 09:53:00,
2013-06-05 06:03:00,76.0,72.0,29.92,SE,129,2.0,12.0,87,0.00,,,0.00,,2013-06-05 10:03:00,
2013-06-05 06:13:00,76.0,72.0,29.92,SE,129,2.0,12.0,87,0.00,,,0.00,,2013-06-05 10:13:00,
2013-06-05 06:22:00,76.0,72.0,29.92,SSE,157,2.0,8.0,87,0.00,,,0.00,,2013-06-05 10:22:00,
2013-06-05 06:33:00,76.0,72.0,29.93,SSE,155,1.0,5.0,88,0.00,,,0.00,,2013-06-05 10:33:00,
2013-06-05 06:42:00,76.0,72.0,29.93,SSE,155,1.0,5.0,88,0.00,,,0.00,,2013-06-05 10:42:00,
2013-06-05 06:52:00,76.0,73.0,29.93,SE,125,2.0,5.0,89,0.00,,,0.00,,2013-06-05 10:52:00,
2013-06-05 07:02:00,76.0,73.0,29.93,East,95,1.0,7.0,90,0.00,,,0.00,,2013-06-05 11:02:00,
2013-06-05 07:13:00,76.0,73.0,29.93,East,95,1.0,7.0,90,0.00,,,0.00,,2013-06-05 11:13:00,
2013-06-05 07:22:00,76.0,73.0,29.93,ENE,66,2.0,7.0,89,0.00,,,0.00,,2013-06-05 11:22:00,
2013-06-05 07:33:00,76.0,73.0,29.93,East,85,1.0,7.0,89,0.00,,,0.00,,2013-06-05 11:33:00,
2013-06-05 07:42:00,76.0,73.0,29.93,East,85,1.0,7.0,89,0.00,,,0.00,,2013-06-05 11:42:00,
2013-06-05 07:52:00,76.0,72.0,29.94,East,79,2.0,6.0,88,0.00,,,0.00,,2013-06-05 11:52:00,
2013-06-05 08:02:00,76.0,72.0,29.95,East,82,1.0,5.0,88,0.00,,,0.00,,2013-06-05 12:02:00,
2013-06-05 08:12:00,76.0,72.0,29.95,East,82,1.0,5.0,88,0.00,,,0.00,,2013-06-05 12:12:00,
2013-06-05 08:22:00,77.0,73.0,29.95,East,80,2.0,4.0,88,0.00,,,0.00,,2013-06-05 12:22:00,
2013-06-05 08:32:00,77.0,73.0,29.95,East,90,3.0,5.0,88,0.00,,,0.00,,2013-06-05 12:32:00,
2013-06-05 08:44:00,77.0,73.0,29.95,East,90,3.0,5.0,88,0.00,,,0.00,,2013-06-05 12:44:00,
2013-06-05 08:52:00,77.0,73.0,29.95,East,97,2.0,6.0,88,0.00,,,0.00,,2013-06-05 12:52:00,
2013-06-05 09:02:00,78.0,74.0,29.96,East,95,1.0,6.0,87,0.00,,,0.00,,2013-06-05 13:02:00,
2013-06-05 09:12:00,78.0,74.0,29.96,East,95,1.0,6.0,87,0.00,,,0.00,,2013-06-05 13:12:00,
2013-06-05 09:22:00,78.0,74.0,29.96,East,80,2.0,7.0,87,0.00,,,0.00,,2013-06-05 13:22:00,
2013-06-05 09:33:00,78.0,74.0,29.96,ESE,113,2.0,5.0,87,0.00,,,0.00,,2013-06-05 13:33:00,
2013-06-05 09:42:00,78.0,74.0,29.96,ESE,113,2.0,5.0,87,0.00,,,0.00,,2013-06-05 13:42:00,
2013-06-05 09:52:00,78.0,74.0,29.97,NE,53,3.0,6.0,87,0.00,,,0.00,,2013-06-05 13:52:00,
2013-06-05 10:02:00,78.0,74.0,29.97,East,96,2.0,6.0,87,0.00,,,0.00,,2013-06-05 14:02:00,
2013-06-05 10:12:00,78.0,74.0,29.97,East,96,2.0,6.0,87,0.00,,,0.00,,2013-06-05 14:12:00,
2013-06-05 10:22:00,79.0,74.0,29.97,SSE,157,2.0,7.0,86,0.00,,,0.00,,2013-06-05 14:22:00,
2013-06-05 10:32:00,80.0,75.0,29.97,ESE,103,3.0,9.0,84,0.00,,,0.00,,2013-06-05 14:32:00,
2013-06-05 10:42:00,80.0,75.0,29.97,ESE,103,3.0,9.0,84,0.00,,,0.00,,2013-06-05 14:42:00,
2013-06-05 10:52:00,79.0,74.0,29.98,ESE,107,4.0,10.0,84,0.00,,,0.00,,2013-06-05 14:52:00,
2013-06-05 11:03:00,79.0,74.0,29.98,ENE,72,2.0,10.0,84,0.00,,,0.00,,2013-06-05 15:03:00,
2013-06-05 11:12:00,79.0,74.0,29.98,ENE,72,2.0,10.0,84,0.00,,,0.00,,2013-06-05 15:12:00,
2013-06-05 11:23:00,82.0,76.0,29.98,SSE,153,2.0,6.0,82,0.00,,,0.00,,2013-06-05 15:23:00,
2013-06-05 11:33:00,82.0,75.0,29.98,East,99,2.0,8.0,80,0.00,,,0.00,,2013-06-05 15:33:00,
2013-06-05 11:43:00,82.0,75.0,29.98,East,99,2.0,8.0,80,0.00,,,0.00,,2013-06-05 15:43:00,
2013-06-05 11:53:00,84.0,76.0,29.98,ESE,105,5.0,10.0,76,0.00,,,0.00,,2013-06-05 15:53:00,
2013-06-05 12:04:00,83.0,75.0,29.98,ENE,70,6.0,10.0,77,0.00,,,0.00,,2013-06-05 16:04:00,
2013-06-05 12:13:00,83.0,75.0,29.98,ENE,70,6.0,10.0,77,0.00,,,0.00,,2013-06-05 16:13:00,
2013-06-05 12:23:00,84.0,76.0,29.97,East,98,4.0,9.0,76,0.00,,,0.00,,2013-06-05 16:23:00,
2013-06-05 12:32:00,83.0,74.0,29.97,ESE,123,5.0,10.0,75,0.00,,,0.00,,2013-06-05 16:32:00,
2013-06-05 12:42:00,83.0,74.0,29.97,ESE,123,5.0,10.0,75,0.00,,,0.00,,2013-06-05 16:42:00,
2013-06-05 12:54:00,82.0,72.0,29.97,ESE,122,5.0,9.0,72,0.00,,,0.00,,2013-06-05 16:54:00,
2013-06-05 13:02:00,83.0,73.0,29.96,East,98,1.0,13.0,73,0.00,,,0.00,,2013-06-05 17:02:00,
2013-06-05 13:13:00,83.0,73.0,29.96,East,98,1.0,13.0,73,0.00,,,0.00,,2013-06-05 17:13:00,
2013-06-05 13:22:00,84.0,73.0,29.95,South,178,5.0,11.0,70,0.00,,,0.00,,2013-06-05 17:22:00,
2013-06-05 13:33:00,84.0,74.0,29.95,ESE,110,7.0,14.0,72,0.00,,,0.00,,2013-06-05 17:33:00,
2013-06-05 13:43:00,84.0,74.0,29.95,ESE,110,7.0,14.0,72,0.00,,,0.00,,2013-06-05 17:43:00,
2013-06-05 13:52:00,84.0,74.0,29.95,East,91,3.0,11.0,72,0.00,,,0.00,,2013-06-05 17:52:00,
2013-06-05 14:02:00,84.0,74.0,29.94,NE,48,3.0,10.0,73,0.00,,,0.00,,2013-06-05 18:02:00,
2013-06-05 14:13:00,84.0,74.0,29.94,NE,48,3.0,10.0,73,0.00,,,0.00,,2013-06-05 18:13:00,
2013-06-05 14:22:00,84.0,74.0,29.94,East,85,4.0,11.0,71,0.00,,,0.00,,2013-06-05 18:22:00,
2013-06-05 14:32:00,84.0,74.0,29.94,East,85,4.0,11.0,71,0.00,,,0.00,,2013-06-05 18:32:00,
2013-06-05 14:42:00,84.0,74.0,29.94,East,85,4.0,11.0,71,0.00,,,0.00,,2013-06-05 18:42:00,
2013-06-05 14:52:00,84.0,72.0,29.93,ESE,107,4.0,13.0,68,0.00,,,0.00,,2013-06-05 18:52:00,
2013-06-05 15:03:00,84.0,73.0,29.93,SSE,148,3.0,10.0,70,0.00,,,0.00,,2013-06-05 19:03:00,
2013-06-05 15:13:00,84.0,73.0,29.93,SSE,148,3.0,10.0,70,0.00,,,0.00,,2013-06-05 19:13:00,
2013-06-05 15:23:00,84.0,74.0,29.93,ESE,111,3.0,8.0,71,0.00,,,0.00,,2013-06-05 19:23:00,
2013-06-05 15:32:00,83.0,73.0,29.92,East,90,3.0,8.0,71,0.00,,,0.00,,2013-06-05 19:32:00,
2013-06-05 15:42:00,83.0,73.0,29.92,East,90,3.0,8.0,71,0.00,,,0.00,,2013-06-05 19:42:00,
2013-06-05 15:52:00,83.0,73.0,29.92,ESE,116,4.0,11.0,72,0.00,,,0.00,,2013-06-05 19:52:00,
2013-06-05 16:03:00,82.0,71.0,29.92,SSE,164,4.0,13.0,70,0.00,,,0.00,,2013-06-05 20:03:00,
2013-06-05 16:12:00,82.0,71.0,29.92,SSE,164,4.0,13.0,70,0.00,,,0.00,,2013-06-05 20:12:00,
2013-06-05 16:23:00,82.0,72.0,29.92,SE,124,1.0,8.0,72,0.00,,,0.00,,2013-06-05 20:23:00,
2013-06-05 16:32:00,81.0,72.0,29.92,ESE,117,4.0,13.0,73,0.00,,,0.00,,2013-06-05 20:32:00,
2013-06-05 16:42:00,81.0,72.0,29.91,SE,145,3.0,9.0,75,0.00,,,0.00,,2013-06-05 20:42:00,
2013-06-05 16:52:00,81.0,72.0,29.91,SE,145,3.0,9.0,75,0.00,,,0.00,,2013-06-05 20:52:00,
2013-06-05 17:02:00,80.0,72.0,29.91,ESE,114,3.0,9.0,76,0.00,,,0.00,,2013-06-05 21:02:00,
2013-06-05 17:12:00,80.0,72.0,29.91,ESE,114,3.0,9.0,76,0.00,,,0.00,,2013-06-05 21:12:00,
2013-06-05 17:22:00,80.0,72.0,29.90,East,97,4.0,9.0,78,0.00,,,0.00,,2013-06-05 21:22:00,
2013-06-05 17:33:00,80.0,73.0,29.90,ESE,115,3.0,9.0,79,0.00,,,0.00,,2013-06-05 21:33:00,
2013-06-05 17:43:00,79.0,72.0,29.89,East,91,2.0,6.0,80,0.00,,,0.00,,2013-06-05 21:43:00,
2013-06-05 17:53:00,79.0,72.0,29.89,East,91,2.0,6.0,80,0.00,,,0.00,,2013-06-05 21:53:00,
2013-06-05 18:03:00,79.0,72.0,29.89,East,92,3.0,11.0,80,0.00,,,0.00,,2013-06-05 22:03:00,
2013-06-05 18:13:00,79.0,72.0,29.89,East,92,3.0,11.0,80,0.00,,,0.00,,2013-06-05 22:13:00,
2013-06-05 18:22:00,79.0,72.0,29.88,ESE,104,3.0,10.0,80,0.00,,,0.00,,2013-06-05 22:22:00,
2013-06-05 18:33:00,79.0,71.0,29.88,SE,130,3.0,10.0,77,0.00,,,0.00,,2013-06-05 22:33:00,
2013-06-05 18:42:00,79.0,71.0,29.88,SE,130,3.0,10.0,77,0.00,,,0.00,,2013-06-05 22:42:00,
2013-06-05 18:52:00,79.0,71.0,29.88,SE,130,3.0,10.0,77,0.00,,,0.00,,2013-06-05 22:52:00,
2013-06-05 19:02:00,79.0,71.0,29.88,ESE,117,3.0,10.0,76,0.00,,,0.00,,2013-06-05 23:02:00,
2013-06-05 19:12:00,79.0,71.0,29.88,ESE,117,3.0,10.0,76,0.00,,,0.00,,2013-06-05 23:12:00,
2013-06-05 19:22:00,78.0,70.0,29.88,SE,134,5.0,10.0,77,0.00,,,0.00,,2013-06-05 23:22:00,
2013-06-05 19:32:00,78.0,70.0,29.88,ESE,115,3.0,8.0,77,0.00,,,0.00,,2013-06-05 23:32:00,
2013-06-05 19:42:00,78.0,70.0,29.88,ESE,115,3.0,8.0,77,0.00,,,0.00,,2013-06-05 23:42:00,
2013-06-05 19:53:00,78.0,70.0,29.88,ENE,77,3.0,7.0,77,0.00,,,0.00,,2013-06-05 23:53:00,
2013-06-05 20:02:00,78.0,70.0,29.88,ESE,106,3.0,9.0,77,0.00,,,0.00,,2013-06-06 00:02:00,
2013-06-05 20:12:00,78.0,70.0,29.88,ESE,106,3.0,9.0,77,0.00,,,0.00,,2013-06-06 00:12:00,
2013-06-05 20:22:00,78.0,70.0,29.88,SE,130,2.0,8.0,77,0.00,,,0.00,,2013-06-06 00:22:00,
2013-06-05 20:32:00,78.0,71.0,29.89,SE,129,3.0,8.0,79,0.00,,,0.00,,2013-06-06 00:32:00,
2013-06-05 20:43:00,78.0,71.0,29.89,SE,129,3.0,8.0,79,0.00,,,0.00,,2013-06-06 00:43:00,
2013-06-05 20:52:00,77.0,71.0,29.89,ESE,109,2.0,9.0,81,0.00,,,0.00,,2013-06-06 00:52:00,
2013-06-05 21:02:00,77.0,71.0,29.89,ESE,104,4.0,8.0,83,0.00,,,0.00,,2013-06-06 01:02:00,
2013-06-05 21:12:00,77.0,71.0,29.89,ESE,104,4.0,8.0,83,0.00,,,0.00,,2013-06-06 01:12:00,
2013-06-05 21:22:00,76.0,72.0,29.89,East,82,1.0,6.0,86,0.01,,,0.01,,2013-06-06 01:22:00,
2013-06-05 21:32:00,75.0,72.0,29.89,ENE,78,2.0,7.0,89,0.02,,,0.02,,2013-06-06 01:32:00,
2013-06-05 21:42:00,75.0,72.0,29.89,ENE,78,2.0,7.0,89,0.02,,,0.02,,2013-06-06 01:42:00,
2013-06-05 21:52:00,75.0,72.0,29.89,East,85,2.0,7.0,91,0.03,,,0.03,,2013-06-06 01:52:00,
2013-06-05 22:02:00,75.0,72.0,29.90,East,86,5.0,18.0,89,0.04,,,0.04,,2013-06-06 02:02:00,
2013-06-05 22:12:00,75.0,72.0,29.90,East,86,5.0,18.0,89,0.04,,,0.04,,2013-06-06 02:12:00,
2013-06-05 22:22:00,74.0,70.0,29.89,ESE,105,5.0,11.0,88,0.04,,,0.05,,2013-06-06 02:22:00,
2013-06-05 22:32:00,74.0,71.0,29.89,East,85,4.0,10.0,89,0.03,,,0.05,,2013-06-06 02:32:00,
2013-06-05 22:42:00,74.0,71.0,29.89,East,85,4.0,10.0,89,0.03,,,0.05,,2013-06-06 02:42:00,
2013-06-05 22:52:00,74.0,71.0,29.89,East,85,4.0,10.0,89,0.03,,,0.05,,2013-06-06 02:52:00,
2013-06-05 23:02:00,74.0,71.0,29.89,SE,128,4.0,11.0,89,0.01,,,0.05,,2013-06-06 03:02:00,
2013-06-05 23:12:00,74.0,71.0,29.89,SE,128,4.0,11.0,89,0.01,,,0.05,,2013-06-06 03:12:00,
2013-06-05 23:22:00,74.0,71.0,29.89,ENE,77,4.0,9.0,90,0.01,,,0.06,,2013-06-06 03:22:00,
2013-06-05 23:33:00,74.0,71.0,29.88,ESE,120,3.0,11.0,91,0.02,,,0.07,,2013-06-06 03:33:00,
2013-06-05 23:43:00,74.0,71.0,29.88,ESE,120,3.0,11.0,91,0.02,,,0.07,,2013-06-06 03:43:00,
2013-06-05 23:52:00,74.0,72.0,29.88,East,83,4.0,8.0,92,0.03,,,0.08,,2013-06-06 03:52:00,